Regional Weather Roundup
Issued by NWS

Home | Current Version | Previous Version | Graphics & Text | Print | Product List | Glossary On
Versions: 1 2 3 4 5 6 7 8 9 10 11 12 13 14 15 16 17 18 19 20 21 22 23 24 25 26 27 28 29 30 31 32 33 34 35 36 37 38 39 40 41 42 43 44 45 46 47 48 49 50
000
ASUS44 KMEG 260610
RWRTN
TENNESSEE HOURLY STATE WEATHER ROUNDUP
NATIONAL WEATHER SERVICE MEMPHIS TN
1200 AM CST WED NOV 26 2014

TNZ002-004-019-021-049-052-054-088>092-260700-
WEST TENNESSEE

CITY           SKY/WX    TMP DP  RH WIND       PRES   REMARKS
MEMPHIS INTL   CLEAR     33  27  78 CALM      30.17F
NWS MEMPHIS      N/A     29 N/A N/A MISG        N/A
JACKSON        CLEAR     27  24  89 CALM      30.17F
DYERSBURG      CLEAR     28  16  59 CALM      30.19F
UNION CITY     CLEAR     27  25  93 CALM      30.16F
PARIS          CLEAR     25  21  86 CALM      30.16S
HUNTINGDON     CLEAR     26  22  85 CALM      30.16F
LEXINGTON      CLEAR     27  25  93 CALM      30.14F
SAVANNAH       CLEAR     27  27 100 CALM      30.16F
$$

TNZ008-025-027-028-033-062-065-066-260700-
NORTH MIDDLE TENNESSEE

CITY           SKY/WX    TMP DP  RH WIND       PRES   REMARKS
NASHVILLE      PTCLDY    37  28  70 N6        30.15F WCI  32
CLARKSVILLE    CLEAR     31  27  85 N3        30.16F
SMYRNA         PTCLDY    33  27  79 CALM      30.15F
COOKEVILLE     CLEAR     39  28  65 N3        30.10F
CROSSVILLE     CLOUDY    40  28  62 N8        30.07F WCI  34
$$

TNZ061-075-076-078-094-096-097-260700-
SOUTH MIDDLE TENNESSEE

CITY           SKY/WX    TMP DP  RH WIND       PRES   REMARKS
FAYETTEVILLE   PTCLDY    37  27  65 MISG      30.09F
TULLAHOMA      CLEAR     37  27  65 N6        30.10F WCI  33
WINCHESTER     CLOUDY    39  28  65 N3        30.09F
MCMINNVILLE    CLEAR     39  28  65 CALM      30.09F
COLUMBIA       CLEAR     30  30 100 CALM      30.11F
SHELBYVILLE    CLOUDY    37  30  75 NW16G45   30.12F WCI  28
$$

TNZ017-018-042-046-047-260700-
NORTHEAST TENNESSEE

CITY           SKY/WX    TMP DP  RH WIND       PRES   REMARKS
TRI CITIES     CLOUDY    40  35  83 NE3       30.02F
ELIZABETHTON   MOCLDY    39  32  75 CALM      30.04R
$$

TNZ012-013-036-069-073-074-260700-
CENTRAL EAST TENNESSEE

CITY           SKY/WX    TMP DP  RH WIND       PRES   REMARKS
KNOXVILLE      CLOUDY    46  30  53 N7        30.03F
OAK RIDGE      CLOUDY    46  31  55 E3        30.05F
GATLINBURG     PTCLDY    41  34  75 CALM      30.03F
MORRISTOWN     CLEAR     45  30  57 CALM      30.03F
$$

TNZ083-085-099-260700-
SOUTHEAST TENNESSEE

CITY           SKY/WX    TMP DP  RH WIND       PRES   REMARKS
CHATTANOOGA    CLOUDY    47  33  58 NW6       30.06F
$$

SKY/WX REPORTED AS FAIR MEANS FEW OR NO CLOUDS BELOW
12 THOUSAND FEET.



USA.gov is the U.S. government's official web portal to all federal, state and local government web resources and services.